This demonstration page uses our WeatherBlox Daily Observations layout. Learn more.

Left ArrowRight Arrow

39.95238, -75.16362

Hourly Observations for May 18, 2016

Temp ( °F °C ) Dew Point ( °F °C ) Humidity (%) Winds ( mph kmh ) Pressure ( in mb ) Visibility ( mi km ) Precip ( " mm )
12:54 am 00:54 Mostly Cloudy with Mist and Fog 52 11.1 49 9.4 89 89 NW 5 7 30.14 1021 6 10 0.00 0.00
1:35 am 01:35 Mostly Cloudy 52 11.1 49 9.4 89 89 NW 3 6 30.15 1021 7 11 0.00 0.00
1:54 am 01:54 Mostly Cloudy 52 11.1 48 8.9 86 86 NW 3 6 30.14 1021 7 11 0.00 0.00
2:54 am 02:54 Cloudy 52 11.1 49 9.4 89 89 Calm 30.13 1020 7 11 0.00 0.00
3:54 am 03:54 Cloudy 52 11.1 48 8.9 86 86 Calm 30.12 1020 8 13 0.00 0.00
4:54 am 04:54 Cloudy 52 11.1 48 8.9 86 86 NW 7 11 30.12 1020 9 14 0.00 0.00
5:54 am 05:54 Cloudy 53 11.7 47 8.3 80 80 N 7 11 30.13 1020 7 11 0.00 0.00
6:18 am 06:18 Cloudy 54 12 46 8 77 77 N 7 11 30.15 1021 10 16 0.00 0.00
6:54 am 06:54 Cloudy 54 12.2 45 7.2 72 72 NNE 3 6 30.14 1021 10 16 0.00 0.00
7:54 am 07:54 Cloudy 56 13.3 41 5 57 57 NE 14 22 30.14 1021 10 16 0.00 0.00
8:54 am 08:54 Cloudy 56 13.3 40 4.4 55 55 NNE 9 15 30.16 1021 10 16 0.00 0.00
9:54 am 09:54 Cloudy 56 13.3 41 5 57 57 ENE 6 9 30.16 1021 10 16 0.00 0.00
10:54 am 10:54 Cloudy with Light Rain 58 14.4 41 5 53 53 NE 9 15 30.15 1021 10 16 0.00 0.03
11:54 am 11:54 Mostly Cloudy 62 16.7 43 6.1 50 50 E 12 19 30.14 1021 10 16 0.00 0.03
12:54 pm 12:54 Mostly Cloudy 65 18.3 43 6.1 45 45 E 9 15 30.13 1020 10 16 0.00 0.00
1:54 pm 13:54 Mostly Cloudy 66 18.9 41 5 40 40 E 8 13 30.11 1020 10 16 0.00 0.00
2:54 pm 14:54 Mostly Cloudy 69 20.6 39 3.9 33 33 E 8 13 30.10 1019 10 16 0.00 0.00
3:54 pm 15:54 Mostly Cloudy 69 20.6 41 5 36 36 E 9 15 30.09 1019 10 16 0.00 0.00
4:54 pm 16:54 Mostly Cloudy 68 20 41 5 38 38 E 7 11 30.07 1018 10 16 0.00 0.00
5:54 pm 17:54 Cloudy 66 18.9 41 5 40 40 ENE 10 17 30.07 1018 10 16 0.00 0.00
6:54 pm 18:54 Cloudy 63 17.2 41 5 45 45 E 10 17 30.08 1019 10 16 0.00 0.00
7:54 pm 19:54 Cloudy 61 16.1 39 3.9 44 44 E 10 17 30.09 1019 10 16 0.00 0.00
8:54 pm 20:54 Cloudy 58 14.4 44 6.7 60 60 E 6 9 30.10 1019 10 16 0.00 0.00
9:54 pm 21:54 Cloudy with Light Rain 57 13.9 46 7.8 67 67 NE 3 6 30.11 1020 10 16 0.00 0.03
10:54 pm 22:54 Cloudy 57 13.9 46 7.8 67 67 NE 5 7 30.11 1020 10 16 0.00 0.03
11:54 pm 23:54 Cloudy 56 13.3 46 7.8 70 70 NNE 5 7 30.11 1020 10 16 0.00 0.00

Powered by AerisWeather